FW4639 Weather Reports


time (UTC)temp
F
wind
direction
speed
knots
gust
knots
rain 1hr
in
rain 24hr
in
rain mn
in
humidity
%
barometer
mb
20260906120021 73 356 0.0 0.9 0.00 0.03 0.00 94 1013.3
20260906114533 73 20 0.0 2.6 0.00 0.03 0.00 95 1013.2
20260906113017 73 21 0.0 0.0 0.00 0.03 0.00 96 1013.0
20260906111516 73 359 0.0 1.7 0.00 0.03 0.00 96 1012.9
20260906110014 73 12 0.0 0.9 0.00 0.03 0.00 96 1012.5
20260906104516 73 6 0.0 3.5 0.00 0.03 0.00 96 1012.4
20260906103011 73 11 0.0 0.9 0.00 0.03 0.00 96 1012.3
20260906101511 73 15 0.0 0.0 0.00 0.03 0.00 96 1012.3
20260906100012 73 359 0.0 0.0 0.00 0.03 0.00 96 1012.1
20260906094528 73 14 0.0 0.0 0.00 0.03 0.00 97 1011.8
20260906093017 72 354 0.0 1.7 0.00 0.03 0.00 97 1011.5
20260906091508 72 349 0.0 0.9 0.00 0.03 0.00 97 1011.4
20260906090011 72 356 0.0 0.9 0.00 0.03 0.00 97 1011.4
20260906084508 72 27 0.0 0.9 0.00 0.03 0.00 97 1011.4
20260906083007 72 4 0.0 1.7 0.00 0.03 0.00 97 1011.3
20260906081512 71 10 0.0 0.9 0.00 0.03 0.00 97 1011.3
20260906080009 71 16 0.0 0.0 0.00 0.03 0.00 97 1011.0
20260906074505 71 16 0.0 0.0 0.00 0.03 0.00 97 1010.9
20260906073005 71 16 0.0 0.0 0.00 0.03 0.00 96 1010.6
20260906071503 71 16 0.0 0.0 0.00 0.03 0.00 96 1010.7
20260906070002 71 16 0.0 0.0 0.00 0.03 0.00 96 1010.8
20260906064601 71 16 0.0 0.0 0.00 0.03 0.00 96 1010.8
20260906063059 71 16 0.0 0.0 0.00 0.03 0.00 96 1011.2
20260906061558 72 16 0.0 0.0 0.00 0.03 0.00 96 1011.1
20260906060056 72 16 0.0 0.0 0.00 0.03 0.00 96 1011.1
20260906054600 72 16 0.0 0.0 0.00 0.03 0.00 96 1011.3
20260906053051 72 16 0.0 0.0 0.00 0.03 0.00 95 1011.5
20260906051601 72 16 0.0 0.0 0.00 0.03 0.00 95 1011.7
20260906050056 73 16 0.0 0.0 0.00 0.03 0.00 95 1011.8
20260906044553 73 16 0.0 0.0 0.00 0.03 0.00 95 1011.9
20260906043043 73 16 0.0 0.0 0.00 0.03 0.00 95 1012.0
20260906041541 73 16 0.0 0.0 0.00 0.03 0.00 94 1012.1
20260906040039 74 16 0.0 0.0 0.00 0.03 0.00 94 1012.1
20260906034538 74 354 0.0 0.0 0.00 0.03 0.03 93 1012.2
20260906033045 74 353 0.0 0.0 0.00 0.03 0.03 93 1012.2
20260906031540 74 353 0.0 0.0 0.00 0.03 0.03 93 1012.0
20260906030037 74 2 0.0 0.0 0.00 0.03 0.03 93 1011.8
20260906024546 74 29 0.0 0.0 0.00 0.03 0.03 94 1011.8
20260906023036 74 10 0.0 0.0 0.00 0.03 0.03 94 1011.9
20260906021536 74 347 0.0 0.0 0.00 0.03 0.03 95 1011.9
20260906020035 74 342 0.0 0.0 0.00 0.03 0.03 95 1011.8
20260906014549 74 342 0.0 0.0 0.00 0.03 0.03 95 1011.9
20260906013043 74 342 0.0 0.0 0.00 0.03 0.03 95 1011.7
20260906011534 74 342 0.0 0.0 0.00 0.03 0.03 95 1011.6
20260906010034 74 342 0.0 0.0 0.00 0.03 0.03 95 1011.4
20260906004534 74 342 0.0 0.0 0.00 0.03 0.03 95 1011.4
20260906003034 74 342 0.0 0.0 0.00 0.03 0.03 95 1011.4
20260906001533 75 342 0.0 0.0 0.00 0.03 0.03 95 1011.3
20260906000035 75 342 0.0 0.0 0.00 0.03 0.03 95 1011.2
20260905234535 75 342 0.0 0.0 0.00 0.03 0.03 95 1011.0
20260905233031 76 342 0.0 0.0 0.00 0.03 0.03 95 1010.7
20260905231530 76 342 0.0 0.0 0.00 0.03 0.03 95 1010.5
20260905230029 76 342 0.0 0.0 0.00 0.03 0.03 96 1009.9
20260905224528 75 342 0.0 0.0 0.00 0.03 0.03 95 1009.6
20260905223028 75 342 0.0 0.0 0.00 0.03 0.03 96 1009.8
20260905221527 75 342 0.0 0.0 0.00 0.03 0.03 95 1010.5
20260905220028 75 342 0.0 0.0 0.01 0.03 0.03 95 1010.7
20260905214528 75 342 0.0 0.0 0.01 0.03 0.03 94 1010.6
20260905213025 75 342 0.0 0.0 0.02 0.03 0.03 94 1010.0
20260905211535 75 342 0.0 0.0 0.02 0.03 0.03 93 1010.2
20260905210024 75 342 0.0 0.0 0.02 0.02 0.02 92 1010.1
20260905204528 76 343 0.0 0.0 0.02 0.02 0.02 91 1010.0
20260905203023 77 334 0.0 0.9 0.01 0.01 0.01 87 1009.9
20260905201523 80 330 0.0 5.2 0.01 0.01 0.01 79 1009.8
20260905200022 82 4 0.9 8.7 0.00 0.00 0.00 68 1010.5
20260905194521 85 306 2.6 10.4 0.00 0.00 0.00 65 1010.7
20260905193019 92 79 4.3 13.0 0.00 0.00 0.00 52 1010.5
20260905191518 95 334 0.0 4.3 0.00 0.00 0.00 49 1009.4
20260905190017 95 319 0.0 5.2 0.00 0.00 0.00 48 1009.3
20260905184517 96 282 0.0 0.9 0.00 0.00 0.00 45 1009.5
20260905183013 96 356 0.0 3.5 0.00 0.00 0.00 45 1009.6
20260905181510 96 6 0.0 1.7 0.00 0.00 0.00 47 1009.9
20260905180009 97 304 0.0 1.7 0.00 0.00 0.00 46 1010.2
20260905174503 96 280 0.0 1.7 0.00 0.00 0.00 47 1010.8
20260905173002 97 17 0.0 2.6 0.00 0.00 0.00 48 1011.3
20260905171559 97 30 0.0 7.0 0.00 0.00 0.00 46 1011.4
20260905170054 96 1 0.0 3.5 0.00 0.00 0.00 51 1011.7
20260905164550 95 286 0.0 0.9 0.00 0.00 0.00 51 1011.8
20260905163048 94 6 1.7 4.3 0.00 0.00 0.00 52 1011.8
20260905161558 94 297 0.0 3.5 0.00 0.00 0.00 55 1012.1
20260905160045 94 4 0.0 4.3 0.00 0.00 0.00 55 1012.4
20260905154541 93 307 0.0 4.3 0.00 0.00 0.00 57 1012.6
20260905153036 91 285 0.0 1.7 0.00 0.00 0.00 61 1012.6
20260905151535 91 279 0.0 1.7 0.00 0.00 0.00 62 1012.7
20260905150031 88 224 0.0 0.9 0.00 0.00 0.00 67 1012.7
20260905144528 88 227 0.0 0.9 0.00 0.00 0.00 67 1012.8
20260905143026 87 227 0.0 1.7 0.00 0.00 0.00 70 1012.7
20260905141522 85 224 0.0 0.0 0.00 0.00 0.00 72 1012.7
20260905140018 84 225 0.0 0.9 0.00 0.00 0.00 74 1012.6
20260905134514 83 224 0.0 0.9 0.00 0.00 0.00 79 1012.6
20260905133010 81 226 0.0 1.7 0.00 0.00 0.00 82 1012.6
20260905131506 80 221 0.0 0.0 0.00 0.00 0.00 86 1012.7
20260905130004 78 221 0.0 0.0 0.00 0.00 0.00 88 1012.7
20260905124503 77 222 0.0 0.0 0.00 0.00 0.00 89 1012.8
20260905123007 77 222 0.0 0.9 0.00 0.00 0.00 91 1012.8
20260905121501 76 221 0.0 0.0 0.00 0.00 0.00 92 1012.7